[[{"header":{"parameterUnit":"m.s-1","parameterCategory":1,"la1":30.2991,"la2":30.254,"lo1":-89.0895,"lo2":-89.0444,"dy":0.0017,"dx":0.0017,"nx":28,"ny":28,"refTime":"2024-03-25T21:00:00:Z","depth":0,"parameterNumber":2,"parameterNumberName":"U-component_of_WINDS"},"data":[0,0,0,0,0,0,0,0,0,0,0,0,0,0,0,0,0,0,0,0,0,0,0,0,0,0,0,0,0,0,0,0,0,0,0,0,0,0,0,0,0,0,0,0,0,0,0,0,0,0,0,0,0,0,0,0,0,0,0.222,0.222,0,0.2174,0.2174,0.2173,0.2167,0.2167,0.2167,0.2168,0.2118,0.2116,0.2114,0,0,0,0,0,0,0,0,0,0,0,0,0,0.23,0.2299,0.222,0.222,0.2219,0.2174,0.2174,0.2173,0.2166,0.2167,0.2168,0.2168,0.2118,0.2116,0.2114,0,0,0,0,0,0,0,0,0,0,0,0,0,0.2261,0.2298,0.2221,0.2211,0.2209,0.2175,0.2174,0.2173,0.2166,0.2167,0.2168,0.2168,0.2119,0.2117,0.2114,0.2085,0,0,0.2106,0.2105,0,0,0,0,0,0,0,0,0.2263,0.2258,0.2213,0.2211,0.221,0.2177,0.2184,0.2143,0.2166,0.2183,0.2168,0.2169,0.2137,0.2133,0.2123,0.2083,0.2081,0.2106,0.2104,0.2103,0.2102,0,0,0,0,0,0,0,0.2266,0.226,0.2202,0.2212,0.221,0.2208,0.2203,0.2176,0.2157,0.2181,0.2181,0.2175,0.2136,0.2125,0.2121,0.208,0.2106,0.2104,0.2102,0.2101,0.2013,0.2013,0,0,0,0,0,0,0.2271,0.2262,0.2204,0.2201,0.2239,0.2206,0.22,0.2187,0.2157,0.2153,0.2175,0.2175,0.2129,0.2124,0.212,0.2083,0.2103,0.2101,0.2099,0.2014,0.2013,0.2012,0,0,0,0,0,0,0.2272,0.2266,0.2205,0.2231,0.2223,0.2204,0.2188,0.2185,0.2175,0.2152,0.2148,0.2167,0.213,0.2123,0.2094,0.2081,0.21,0.2097,0.2015,0.2014,0.2013,0.2011,0,0,0,0,0,0,0.2275,0.2266,0.2256,0.2231,0.2222,0.2181,0.2188,0.2184,0.217,0.217,0.2144,0.214,0.213,0.2098,0.2091,0.2078,0.2095,0.2016,0.2015,0.2013,0.2012,0.201,0.2008,0,0,0,0,0,0.2278,0.2256,0.2255,0.2248,0.2209,0.218,0.2175,0.2164,0.217,0.2158,0.2144,0.2141,0.2084,0.2095,0.2087,0.2073,0.2017,0.2015,0.2013,0.2013,0.201,0.2008,0,0,0,0,0,0,0.2279,0.2253,0.2251,0.2221,0.2203,0.2179,0.2165,0.2162,0.2141,0.2142,0.2128,0.2122,0.2093,0.208,0.2093,0.2044,0.2051,0.2048,0.2053,0.205,0.2048,0.2051,0.2093,0,0,0,0,0,0.2276,0.2256,0.2234,0.221,0.2201,0.2184,0.2172,0.2165,0.2145,0.2137,0.2121,0.2101,0.2078,0.2064,0.2042,0.201,0.2004,0.1997,0.1995,0.1994,0.199,0.1972,0.1969,0.2007,0.2007,0.2007,0,0,0.2268,0.2252,0.224,0.221,0.2195,0.2173,0.2178,0.2155,0.2139,0.2133,0.2104,0.2092,0.2069,0.2038,0.2024,0.2027,0.1979,0.1991,0.199,0.1988,0.197,0.1967,0.1963,0.2006,0.2006,0.2006,0,0,0.2245,0.2231,0.2209,0.2194,0.2172,0.2161,0.2156,0.2133,0.2124,0.2096,0.2091,0.2071,0.2033,0.2017,0.2003,0.1974,0.1971,0.1968,0.1957,0.1939,0.1936,0.1933,0.1922,0.1918,0.1965,0.1965,0.1965,0,0.2239,0.2207,0.2198,0.2176,0.2162,0.2157,0.2134,0.212,0.2091,0.2082,0.2086,0.2038,0.2022,0.1987,0.198,0.197,0.1963,0.197,0.1937,0.1935,0.1932,0.1921,0.1917,0.1964,0.1965,0.1965,0.1965,0,0.2201,0.2179,0.2164,0.2137,0.2122,0.21,0.2086,0.2072,0.2066,0.2055,0.2025,0.2007,0.1981,0.1972,0.1966,0.1936,0.1939,0.194,0.1947,0.1928,0.1918,0.1913,0.1964,0.1964,0.1964,0.1964,0,0,0.2175,0.2144,0.2139,0.2127,0.2102,0.2085,0.2062,0.2038,0.2025,0.2006,0.1986,0.1954,0.1956,0.194,0.1933,0.1918,0.1895,0.1921,0.192,0.1916,0.186,0.1858,0.1854,0.1893,0.1892,0.1892,0.1862,0,0.2148,0.2108,0.2099,0.2064,0.2043,0.2039,0.2019,0.2001,0.199,0.1971,0.1958,0.1936,0.194,0.1931,0.1915,0.1901,0.1883,0.1903,0.1873,0.1872,0.1878,0.1848,0.1846,0.1818,0.1858,0.1857,0.1856,0,0.211,0.2091,0.2055,0.2033,0.2024,0.2006,0.1983,0.1965,0.1945,0.1938,0.1921,0.1916,0.1891,0.19,0.1865,0.1879,0.1866,0.1858,0.1856,0.1852,0.1862,0.1842,0.1809,0.1805,0.185,0.185,0.1851,0,0.2094,0.2059,0.2033,0.2023,0.1997,0.1984,0.1973,0.1954,0.194,0.1919,0.191,0.1887,0.1874,0.1856,0.1843,0.1851,0.181,0.1818,0.1802,0.1802,0.1792,0.1793,0.1756,0.1786,0.1786,0.1786,0.1786,0,0.2064,0.2042,0.2025,0.2009,0.1983,0.1973,0.1948,0.1936,0.1919,0.19,0.1894,0.1876,0.1862,0.1841,0.1832,0.1804,0.1799,0.1792,0.1789,0.1791,0.1792,0.1782,0.1783,0.1785,0.1785,0.1786,0.1786,0,0.2041,0.203,0.2,0.1979,0.1973,0.1955,0.1936,0.1919,0.1909,0.1884,0.1878,0.1861,0.1837,0.1823,0.1793,0.1786,0.1755,0.1754,0.1762,0.1761,0.1745,0.1747,0.17,0.1693,0.1729,0.1728,0.1728,0,0.2022,0.2005,0.1982,0.1969,0.1958,0.1937,0.1923,0.1912,0.1897,0.1873,0.1859,0.1835,0.1815,0.1777,0.1761,0.1737,0.1735,0.172,0.1731,0.1734,0.1733,0.1734,0.1732,0.1718,0.1718,0.1717,0.1717,0,0.1989,0.1985,0.1965,0.1943,0.1927,0.1909,0.1891,0.1881,0.1867,0.1851,0.1827,0.1811,0.178,0.1756,0.1731,0.1719,0.1715,0.1714,0.1709,0.171,0.1715,0.1712,0.1755,0.1715,0.1715,0.1715,0.1715,0.1715,0.1967,0.1951,0.1933,0.1911,0.1897,0.1881,0.1864,0.1852,0.1832,0.1806,0.1801,0.1775,0.1755,0.1722,0.1709,0.1688,0.169,0.1683,0.1681,0.1679,0.1678,0.172,0.1683,0.1683,0.1683,0.1683,0.1684,0,0.1933,0.1921,0.1901,0.1877,0.186,0.186,0.184,0.1825,0.1803,0.1785,0.1766,0.1738,0.1714,0.1697,0.1673,0.166,0.1657,0.1653,0.1654,0.1651,0.1678,0.1684,0.1656,0.1656,0.1656,0.1656,0.1656,0.1656,0.1913,0.1887,0.188,0.1846,0.1834,0.1809,0.1798,0.1782,0.1768,0.1737,0.1718,0.1708,0.169,0.1665,0.1643,0.1638,0.1629,0.1625,0.162,0.1646,0.1649,0.1652,0.1657,0.1624,0.1624,0.1595,0.1595,0.1594]},{"header":{"parameterUnit":"m.s-1","parameterCategory":1,"la1":30.2991,"la2":30.254,"lo1":-89.0895,"lo2":-89.0444,"dy":0.0017,"dx":0.0017,"nx":28,"ny":28,"refTime":"2024-03-25T21:00:00:Z","depth":0,"parameterNumber":3,"parameterNumberName":"V-component_of_WINDS"},"data":[0,0,0,0,0,0,0,0,0,0,0,0,0,0,0,0,0,0,0,0,0,0,0,0,0,0,0,0,0,0,0,0,0,0,0,0,0,0,0,0,0,0,0,0,0,0,0,0,0,0,0,0,0,0,0,0,0,0,-4.7605,-4.7608,0,-4.784,-4.7843,-4.7845,-4.7874,-4.7871,-4.7869,-4.7867,-4.8107,-4.8115,-4.8124,0,0,0,0,0,0,0,0,0,0,0,0,0,-4.7185,-4.7192,-4.7605,-4.7608,-4.7611,-4.784,-4.7843,-4.7846,-4.7874,-4.7871,-4.7869,-4.7866,-4.8104,-4.8114,-4.8124,0,0,0,0,0,0,0,0,0,0,0,0,0,-4.7388,-4.7195,-4.7605,-4.7653,-4.7659,-4.7839,-4.7843,-4.7847,-4.7875,-4.7871,-4.7868,-4.7865,-4.8101,-4.8113,-4.8126,-4.8274,0,0,-4.8165,-4.817,0,0,0,0,0,0,0,0,-4.7376,-4.7403,-4.7643,-4.765,-4.7657,-4.7824,-4.7783,-4.799,-4.7876,-4.7793,-4.7867,-4.7863,-4.8016,-4.8035,-4.8087,-4.8285,-4.8295,-4.8166,-4.8174,-4.8179,-4.8183,0,0,0,0,0,0,0,-4.7362,-4.7394,-4.7698,-4.7646,-4.7655,-4.7664,-4.7689,-4.7822,-4.7921,-4.78,-4.7802,-4.783,-4.8019,-4.8074,-4.8093,-4.8299,-4.8166,-4.8177,-4.8185,-4.819,-4.8634,-4.8638,0,0,0,0,0,0,-4.7339,-4.7382,-4.7691,-4.7705,-4.7506,-4.7674,-4.7702,-4.7774,-4.7919,-4.7938,-4.7833,-4.783,-4.8054,-4.8078,-4.8101,-4.8287,-4.8179,-4.8191,-4.8199,-4.863,-4.8635,-4.864,0,0,0,0,0,0,-4.733,-4.7366,-4.7681,-4.7544,-4.7585,-4.7685,-4.7766,-4.778,-4.7836,-4.7944,-4.7962,-4.7871,-4.8052,-4.8083,-4.8232,-4.8295,-4.8197,-4.8209,-4.8625,-4.8632,-4.8638,-4.8656,0,0,0,0,0,0,-4.7318,-4.7363,-4.7419,-4.7545,-4.7592,-4.7807,-4.7769,-4.7788,-4.7858,-4.7857,-4.7985,-4.8003,-4.8052,-4.8212,-4.8244,-4.8311,-4.8219,-4.862,-4.8628,-4.8636,-4.8651,-4.8663,-4.8673,0,0,0,0,0,-4.7303,-4.7414,-4.7422,-4.7459,-4.7665,-4.781,-4.7837,-4.7892,-4.7863,-4.7921,-4.7991,-4.7998,-4.8283,-4.8227,-4.8264,-4.8335,-4.8616,-4.8626,-4.8635,-4.8646,-4.866,-4.8673,0,0,0,0,0,0,-4.7292,-4.7432,-4.7441,-4.7597,-4.7692,-4.7815,-4.789,-4.7905,-4.801,-4.8005,-4.8069,-4.8097,-4.8244,-4.8304,-4.824,-4.8488,-4.8447,-4.8464,-4.8443,-4.8458,-4.8468,-4.8451,-4.8229,0,0,0,0,0,-4.7308,-4.7414,-4.7531,-4.7657,-4.7704,-4.7789,-4.7854,-4.7889,-4.7989,-4.803,-4.811,-4.8208,-4.832,-4.8392,-4.85,-4.866,-4.8689,-4.8727,-4.8738,-4.8747,-4.8761,-4.8852,-4.8871,-4.867,-4.867,-4.867,0,0,-4.7342,-4.7431,-4.7494,-4.7657,-4.7735,-4.7845,-4.7822,-4.7939,-4.8022,-4.8047,-4.8193,-4.8256,-4.837,-4.8525,-4.8597,-4.858,-4.8823,-4.8758,-4.8764,-4.8774,-4.8864,-4.8883,-4.89,-4.8677,-4.8675,-4.8674,0,0,-4.746,-4.7537,-4.7652,-4.7731,-4.7849,-4.7906,-4.7933,-4.8055,-4.8099,-4.8246,-4.8269,-4.8369,-4.8559,-4.864,-4.8706,-4.8859,-4.887,-4.8892,-4.895,-4.9039,-4.9055,-4.9069,-4.9126,-4.9145,-4.8906,-4.8906,-4.8906,0,-4.7487,-4.7653,-4.7709,-4.7827,-4.7899,-4.7929,-4.8047,-4.8121,-4.8268,-4.8318,-4.8296,-4.8539,-4.8617,-4.8793,-4.8831,-4.8882,-4.8918,-4.8878,-4.9048,-4.9063,-4.9077,-4.9132,-4.9153,-4.8908,-4.8908,-4.8907,-4.8907,0,-4.7682,-4.7797,-4.7876,-4.8018,-4.81,-4.8216,-4.8293,-4.8368,-4.8397,-4.8456,-4.8607,-4.8703,-4.8833,-4.8877,-4.8905,-4.9059,-4.9044,-4.9035,-4.8995,-4.9097,-4.915,-4.9171,-4.8911,-4.891,-4.891,-4.8909,0,0,-4.7797,-4.7972,-4.8001,-4.8067,-4.8202,-4.8292,-4.8412,-4.854,-4.8605,-4.8706,-4.8809,-4.8972,-4.8965,-4.904,-4.9078,-4.9155,-4.9274,-4.9137,-4.914,-4.916,-4.9451,-4.9458,-4.9482,-4.9282,-4.9286,-4.929,-4.9443,0,-4.7932,-4.8145,-4.8201,-4.8383,-4.8492,-4.8524,-4.8629,-4.8723,-4.8782,-4.8884,-4.895,-4.9065,-4.9046,-4.9092,-4.917,-4.9242,-4.9333,-4.9232,-4.938,-4.9384,-4.9351,-4.9509,-4.9516,-4.9655,-4.9463,-4.9467,-4.9469,0,-4.8116,-4.8223,-4.8416,-4.8539,-4.8587,-4.868,-4.8804,-4.89,-4.9009,-4.9047,-4.9133,-4.9164,-4.9292,-4.9246,-4.9424,-4.9354,-4.9419,-4.9464,-4.947,-4.9487,-4.9433,-4.953,-4.9701,-4.9722,-4.9502,-4.9499,-4.9497,0,-4.8183,-4.8375,-4.8517,-4.8573,-4.8719,-4.8785,-4.8849,-4.8955,-4.9029,-4.9138,-4.9187,-4.9309,-4.9376,-4.947,-4.9534,-4.9494,-4.9707,-4.9666,-4.9743,-4.9742,-4.9787,-4.9783,-4.9971,-4.9827,-4.9826,-4.9826,-4.9825,0,-4.8328,-4.8445,-4.8549,-4.8636,-4.8769,-4.8834,-4.8965,-4.903,-4.9125,-4.9227,-4.9261,-4.9356,-4.9435,-4.954,-4.9591,-4.9733,-4.9762,-4.9797,-4.9809,-4.9795,-4.979,-4.9837,-4.983,-4.9831,-4.983,-4.9829,-4.9828,0,-4.8424,-4.8499,-4.8655,-4.8783,-4.8818,-4.8911,-4.902,-4.9107,-4.9169,-4.9297,-4.9331,-4.9428,-4.9554,-4.9628,-4.9787,-4.9822,-4.9979,-4.9986,-4.9942,-4.9948,-5.0022,-5.0014,-5.0247,-5.0282,-5.0113,-5.0115,-5.0116,0,-4.8512,-4.8603,-4.8741,-4.8812,-4.8878,-4.8991,-4.9068,-4.9136,-4.9215,-4.9349,-4.942,-4.9549,-4.9656,-4.9857,-4.9942,-5.0065,-5.0076,-5.015,-5.0095,-5.0078,-5.0079,-5.0073,-5.0084,-5.0159,-5.016,-5.0161,-5.0162,0,-4.8659,-4.8693,-4.8802,-4.8926,-4.9017,-4.9117,-4.9217,-4.9274,-4.936,-4.9447,-4.9578,-4.9661,-4.9825,-4.9954,-5.0085,-5.0152,-5.0173,-5.0179,-5.0204,-5.019,-5.0161,-5.018,-4.9969,-5.0173,-5.0172,-5.0171,-5.0171,-5.017,-4.8755,-4.8839,-4.895,-4.9072,-4.9155,-4.9249,-4.9337,-4.9411,-4.9521,-4.9661,-4.9695,-4.9833,-4.9944,-5.0122,-5.0193,-5.0302,-5.029,-5.0325,-5.0334,-5.0342,-5.0345,-5.0144,-5.0326,-5.0326,-5.0326,-5.0326,-5.0326,0,-4.8906,-4.898,-4.9091,-4.9231,-4.9328,-4.934,-4.9452,-4.9533,-4.9654,-4.9755,-4.9861,-5.0013,-5.0138,-5.0235,-5.0364,-5.0433,-5.0446,-5.0465,-5.0461,-5.0477,-5.0348,-5.0315,-5.0453,-5.0453,-5.0453,-5.0453,-5.0453,-5.0453,-4.8996,-4.9139,-4.9186,-4.9372,-4.9446,-4.9582,-4.9645,-4.9733,-4.9814,-4.9983,-5.0088,-5.015,-5.0251,-5.0388,-5.0505,-5.053,-5.0577,-5.0594,-5.0621,-5.0499,-5.0485,-5.0472,-5.0441,-5.0603,-5.0604,-5.0741,-5.0742,-5.0743]}]]